TimeEDT,TemperatureF,Dew PointF,Humidity,Sea Level PressureIn,VisibilityMPH,Wind Direction,Wind SpeedMPH,Gust SpeedMPH,PrecipitationIn,Events,Conditions,WindDirDegrees,DateUTC
12:53 AM,80.1,72.0,76,30.01,10.0,ESE,11.5,-,0.00,,Scattered Clouds,120,2013-11-01 04:53:00
1:53 AM,79.0,72.0,79,30.00,10.0,SE,11.5,-,N/A,,Scattered Clouds,130,2013-11-01 05:53:00
2:53 AM,79.0,72.0,79,29.99,10.0,SE,10.4,-,N/A,,Partly Cloudy,140,2013-11-01 06:53:00
3:53 AM,79.0,71.1,77,29.97,10.0,SE,8.1,-,N/A,,Clear,130,2013-11-01 07:53:00
4:43 AM,78.8,71.6,78,29.96,10.0,SE,6.9,-,N/A,,Partly Cloudy,140,2013-11-01 08:43:00
4:53 AM,79.0,71.1,77,29.97,10.0,SE,8.1,-,N/A,,Clear,140,2013-11-01 08:53:00
5:53 AM,78.1,71.1,79,29.98,10.0,SE,4.6,-,N/A,,Clear,140,2013-11-01 09:53:00
6:53 AM,78.1,71.1,79,29.99,10.0,SE,8.1,-,N/A,,Scattered Clouds,140,2013-11-01 10:53:00
7:53 AM,78.1,71.1,79,30.00,10.0,SE,5.8,-,N/A,,Scattered Clouds,130,2013-11-01 11:53:00
8:53 AM,80.1,72.0,76,30.01,10.0,SE,4.6,-,N/A,,Scattered Clouds,140,2013-11-01 12:53:00
9:53 AM,82.9,73.0,72,30.02,10.0,SE,9.2,-,N/A,,Scattered Clouds,140,2013-11-01 13:53:00
10:53 AM,84.9,72.0,65,30.01,10.0,ESE,11.5,-,N/A,,Scattered Clouds,120,2013-11-01 14:53:00
11:53 AM,84.9,72.0,65,30.00,10.0,SSE,11.5,-,N/A,,Scattered Clouds,160,2013-11-01 15:53:00
12:53 PM,86.0,73.0,65,29.97,10.0,ESE,11.5,-,N/A,,Scattered Clouds,110,2013-11-01 16:53:00
1:53 PM,87.1,72.0,61,29.94,10.0,SE,12.7,-,N/A,,Scattered Clouds,130,2013-11-01 17:53:00
2:53 PM,87.1,73.0,63,29.92,10.0,SSE,11.5,18.4,N/A,,Scattered Clouds,150,2013-11-01 18:53:00
3:53 PM,84.9,73.0,67,29.91,10.0,SSE,11.5,-,N/A,,Scattered Clouds,150,2013-11-01 19:53:00
4:53 PM,84.9,73.0,67,29.90,10.0,South,6.9,-,N/A,,Scattered Clouds,170,2013-11-01 20:53:00
5:53 PM,82.9,73.0,72,29.91,10.0,SE,10.4,-,N/A,,Scattered Clouds,140,2013-11-01 21:53:00
6:53 PM,81.0,72.0,74,29.92,10.0,SE,8.1,-,N/A,,Scattered Clouds,140,2013-11-01 22:53:00
7:53 PM,80.1,72.0,76,29.94,10.0,SSE,5.8,-,N/A,,Partly Cloudy,150,2013-11-01 23:53:00
8:53 PM,80.1,72.0,76,29.95,10.0,South,5.8,-,N/A,,Clear,170,2013-11-02 00:53:00
9:53 PM,79.0,72.0,79,29.96,10.0,South,3.5,-,N/A,,Clear,170,2013-11-02 01:53:00
10:53 PM,77.0,72.0,84,29.96,10.0,South,4.6,-,N/A,,Clear,190,2013-11-02 02:53:00
11:53 PM,77.0,72.0,84,29.96,10.0,South,3.5,-,N/A,,Clear,190,2013-11-02 03:53:00